CAPE
897 561 275 100 12 3 3 4 1 0 0 0 0 0 0 0 0 0 0 0 0 0 0 0 0 0 0 0 0 0 0 0 0 0 0 0 0 0 0 0 0 0 0
325 136 22 2 3 4 5 4 0 0 0 0 0 0 0 0 0 0 0 0 0 0 0 0 0 0 0 0 0 0 0 0 0 0 0 0 0 0 0 0 0 0 0
51 35 6 6 6 6 5 1 0 0 0 0 0 0 0 0 0 0 0 0 0 0 0 0 0 0 0 0 0 0 0 0 0 0 0 0 0 0 0 0 0 0 0
5 6 6 5 6 6 4 2 0 0 0 0 0 0 0 0 0 0 0 0 0 0 0 0 0 0 0 0 0 0 0 0 0 0 1 0 0 0 0 1 0 0 0
7 6 8 7 6 3 2 1 0 0 0 0 0 0 0 0 0 0 0 0 0 0 0 0 0 0 0 0 0 0 0 0 0 0 0 1 0 2 3 2 2 1 0
3 2 7 5 6 3 2 0 0 0 0 0 0 0 0 0 0 0 0 0 0 0 0 0 0 0 0 0 0 0 0 0 0 3 4 4 3 2 1 3 3 4 3
4 6 6 6 3 2 0 0 0 0 0 0 0 0 0 0 0 0 0 0 0 0 0 0 0 0 0 0 0 0 0 0 0 0 2 3 3 3 2 4 5 4 4
7 6 4 2 2 0 0 0 0 0 0 0 0 0 0 0 0 0 0 0 0 0 0 0 0 0 0 0 0 0 0 0 0 0 0 1 1 0 1 3 3 3 2
4 3 2 0 0 0 0 0 0 0 0 0 0 0 0 0 0 0 0 0 0 0 0 0 0 0 0 0 0 0 0 0 0 0 0 0 0 0 1 1 3 5 1
2 1 0 0 0 0 0 0 0 0 0 0 0 0 0 0 0 0 0 0 0 0 0 0 0 0 0 0 0 0 0 0 0 0 0 0 0 0 1 1 2 5 5
1 0 0 0 0 0 0 0 0 0 0 0 0 0 0 0 0 0 0 0 0 0 0 0 0 0 0 0 0 0 0 0 0 0 1 1 1 1 1 1 1 2 4
0 0 0 0 0 0 0 0 0 0 0 0 0 0 0 0 0 0 0 0 0 0 0 0 0 0 0 0 0 0 0 0 0 2 4 4 4 3 2 1 1 1 1
0 0 0 0 0 0 0 0 0 0 0 0 0 0 0 0 0 0 0 0 0 0 0 0 0 0 0 0 0 0 0 0 1 4 4 4 2 1 1 1 2 1 1
0 0 0 0 0 0 0 0 0 0 0 0 0 0 0 0 0 0 0 0 0 0 0 0 0 0 0 0 0 0 0 0 1 2 3 1 1 1 2 2 4 3 3
0 0 0 0 0 0 0 0 0 0 0 0 0 0 0 0 0 0 0 0 0 0 0 0 0 0 0 0 0 0 0 0 1 1 3 3 3 2 2 1 2 5 6
0 0 0 0 0 0 0 0 0 0 0 0 0 0 0 0 0 0 0 0 0 0 0 0 0 0 0 0 0 0 0 0 0 3 2 2 3 3 2 2 2 4 6
0 0 0 0 0 0 0 0 0 0 0 0 0 0 0 0 0 0 0 0 0 0 0 0 0 0 0 0 0 0 0 0 0 3 3 2 2 2 1 2 3 5 6
0 0 0 0 0 0 0 0 0 0 0 0 0 0 0 0 0 0 0 0 0 0 0 0 0 0 0 0 0 0 0 0 0 0 2 2 1 2 1 2 3 5 6
0 0 0 0 0 0 0 0 0 0 0 0 0 0 0 0 0 0 0 0 0 0 0 0 0 0 0 0 0 0 0 0 0 0 0 1 2 1 1 1 2 4 3
0 0 0 0 0 0 0 0 0 0 0 0 0 0 0 0 0 0 0 0 0 0 0 0 0 0 0 0 0 0 0 0 0 0 0 0 2 1 0 1 2 3 5
0 0 0 0 0 0 0 0 0 0 0 0 0 0 0 0 0 0 0 0 0 0 0 0 0 0 0 0 0 0 0 0 0 0 0 0 0 1 1 0 1 2 3
0 0 0 0 0 0 0 0 0 0 0 0 0 0 0 0 0 0 0 0 0 0 0 0 0 0 0 0 0 0 0 0 0 0 0 0 0 1 1 1 1 2 2
0 0 0 0 0 0 0 0 0 0 0 0 0 0 0 0 0 0 0 0 0 0 0 0 0 0 0 0 0 0 0 0 0 0 0 0 0 0 0 0 1 2 2
0 0 0 0 0 0 0 0 0 0 0 0 0 0 0 0 0 0 0 0 0 0 0 0 0 0 0 0 0 0 0 0 0 0 0 0 0 0 0 0 0 2 0
0 0 0 0 0 0 0 0 0 0 0 0 0 0 0 0 0 0 0 0 0 0 0 0 0 0 0 0 0 0 0 0 0 0 0 0 0 0 0 0 0 1 0
0 0 0 0 0 0 0 0 0 0 0 0 0 0 0 0 0 0 0 0 0 0 0 0 0 0 0 0 0 0 0 0 0 0 0 0 0 0 0 0 0 0 0
CIN
-75 -182 -253 -332 -362 -0 -0 -0 -0 -0 -0 -0 -0 -0 -0 -0 -0 -0 -0 -0 -0 -0 -0 -0 -0 -0 -0 -0 -0 -0 -0 -0 -0 -0 -0 -0 -0 -0 -0 -0 -0 -0 -0
-226 -331 -426 -3 -0 -0 -0 -0 -0 -0 -0 -0 -0 -0 -0 -0 -0 -0 -0 -0 -0 -0 -0 -0 -0 -0 -0 -0 -0 -0 -0 -0 -0 -0 -0 -0 -0 -0 -0 -0 -0 -0 -0
-409 -450 -0 -0 -0 -0 -0 -0 -0 -0 -0 -0 -0 -0 -0 -0 -0 -0 -0 -0 -0 -0 -0 -0 -0 -0 -0 -0 -0 -0 -0 -0 -0 -0 -0 -0 -0 -0 -0 -0 -0 -0 -0
-0 -0 -0 -0 -0 -0 -0 -0 -0 -0 -0 -0 -0 -0 -0 -0 -0 -0 -0 -0 -0 -0 -0 -0 -0 -0 -0 -0 -0 -0 -0 -0 -0 -5 -1 -0 -0 -0 -0 -0 -0 -0 -0
-0 -0 -0 -0 -0 -0 -0 -0 -0 -0 -0 -0 -0 -0 -0 -0 -0 -0 -0 -0 -0 -0 -0 -0 -0 -0 -0 -0 -0 -0 -0 -0 -0 -0 -0 -0 -0 -0 -0 -0 -0 -0 -0
-0 -0 -0 -0 -0 -0 -0 -0 -0 -0 -0 -0 -0 -0 -0 -0 -0 -0 -0 -0 -0 -0 -0 -0 -0 -0 -0 -0 -0 -0 -0 -0 -0 -0 -0 -0 -0 -0 -0 -0 -0 -0 -0
-0 -0 -0 -0 -0 -0 -0 -0 -0 -0 -0 -0 -0 -0 -0 -0 -0 -0 -0 -0 -0 -0 -0 -0 -0 -0 -0 -0 -0 -0 -0 -0 -0 -0 -0 -0 -0 -0 -0 -0 -0 -0 -0
-0 -0 -0 -0 -0 -0 -0 -0 -0 -0 -0 -0 -0 -0 -0 -0 -0 -0 -0 -0 -0 -0 -0 -0 -0 -0 -0 -0 -0 -0 -0 -0 -0 -0 -0 -0 -0 -0 -0 -0 -0 -0 -0
-0 -0 -0 -0 -0 -0 -0 -0 -0 -0 -0 -0 -0 -0 -0 -0 -0 -0 -0 -0 -0 -0 -0 -0 -0 -0 -0 -0 -0 -0 -0 -0 -0 -0 -0 -0 -0 -0 -0 -0 -0 -0 -0
-0 -0 -0 -0 -0 -0 -0 -0 -0 -0 -0 -0 -0 -0 -0 -0 -0 -0 -0 -0 -0 -0 -0 -0 -0 -0 -0 -0 -0 -0 -0 -0 -0 -0 -0 -0 -0 -0 -0 -0 -0 -0 -0
-0 -0 -0 -0 -0 -0 -0 -0 -0 -0 -0 -0 -0 -0 -0 -0 -0 -0 -0 -0 -0 -0 -0 -0 -0 -0 -0 -0 -0 -0 -0 -0 -0 -0 -0 -0 -0 -0 -0 -0 -0 -0 -0
-0 -0 -0 -0 -0 -0 -0 -0 -0 -0 -0 -0 -0 -0 -0 -0 -0 -0 -0 -0 -0 -0 -0 -0 -0 -0 -0 -0 -0 -0 -0 -0 -0 -0 -0 -0 -0 -0 -0 -0 -0 -0 -0
-0 -0 -0 -0 -0 -0 -0 -0 -0 -0 -0 -0 -0 -0 -0 -0 -0 -0 -0 -0 -0 -0 -0 -0 -0 -0 -0 -0 -0 -0 -0 -0 -0 -0 -0 -0 -0 -0 -0 -0 -0 -0 -0
-0 -0 -0 -0 -0 -0 -0 -0 -0 -0 -0 -0 -0 -0 -0 -0 -0 -0 -0 -0 -0 -0 -0 -0 -0 -0 -0 -0 -0 -0 -0 -0 -0 -0 -0 -0 -0 -0 -0 -0 -0 -0 -0
-0 -0 -0 -0 -0 -0 -0 -0 -0 -0 -0 -0 -0 -0 -0 -0 -0 -0 -0 -0 -0 -0 -0 -0 -0 -0 -0 -0 -0 -0 -0 -0 -0 -0 -0 -0 -0 -0 -0 -0 -0 -0 -0
-0 -0 -0 -0 -0 -0 -0 -0 -0 -0 -0 -0 -0 -0 -0 -0 -0 -0 -0 -0 -0 -0 -0 -0 -0 -0 -0 -0 -0 -0 -0 -0 -0 -0 -0 -0 -0 -0 -0 -0 -0 -0 -0
-0 -0 -0 -0 -0 -0 -0 -0 -0 -0 -0 -0 -0 -0 -0 -0 -0 -0 -0 -0 -0 -0 -0 -0 -0 -0 -0 -0 -0 -0 -0 -0 -0 -0 -0 -0 -0 -0 -0 -0 -0 -0 -0
-0 -0 -0 -0 -0 -0 -0 -0 -0 -0 -0 -0 -0 -0 -0 -0 -0 -0 -0 -0 -0 -0 -0 -0 -0 -0 -0 -0 -0 -0 -0 -0 -0 -0 -0 -0 -0 -0 -0 -0 -0 -0 -0
-0 -0 -0 -0 -0 -0 -0 -0 -0 -0 -0 -0 -0 -0 -0 -0 -0 -0 -0 -0 -0 -0 -0 -0 -0 -0 -0 -0 -0 -0 -0 -0 -0 -0 -0 -0 -0 -0 -0 -0 -0 -0 -0
-0 -0 -0 -0 -0 -0 -0 -0 -0 -0 -0 -0 -0 -0 -0 -0 -0 -0 -0 -0 -0 -0 -0 -0 -0 -0 -0 -0 -0 -0 -0 -0 -0 -0 -0 -0 -0 -0 -0 -0 -0 -0 -0
-0 -0 -0 -0 -0 -0 -0 -0 -0 -0 -0 -0 -0 -0 -0 -0 -0 -0 -0 -0 -0 -0 -0 -0 -0 -0 -0 -0 -0 -0 -0 -0 -0 -0 -0 -0 -0 -0 -0 -0 -0 -0 -0
-0 -0 -0 -0 -0 -0 -0 -0 -0 -0 -0 -0 -0 -0 -0 -0 -0 -0 -0 -0 -0 -0 -0 -0 -0 -0 -0 -0 -0 -0 -0 -0 -0 -0 -0 -0 -0 -0 -0 -0 -0 -0 -0
-0 -0 -0 -0 -0 -0 -0 -0 -0 -0 -0 -0 -0 -0 -0 -0 -0 -0 -0 -0 -0 -0 -0 -0 -0 -0 -0 -0 -0 -0 -0 -0 -0 -0 -0 -0 -0 -0 -0 -0 -0 -0 -0
-0 -0 -0 -0 -0 -0 -0 -0 -0 -0 -0 -0 -0 -0 -0 -0 -0 -0 -0 -0 -0 -0 -0 -0 -0 -0 -0 -0 -0 -0 -0 -0 -0 -0 -0 -0 -0 -0 -0 -0 -0 -0 -0
-0 -0 -0 -0 -0 -0 -0 -0 -0 -0 -0 -0 -0 -0 -0 -0 -0 -0 -0 -0 -0 -0 -0 -0 -0 -0 -0 -0 -0 -0 -0 -0 -0 -0 -0 -0 -0 -0 -0 -0 -0 -0 -0
-0 -0 -0 -0 -0 -0 -0 -0 -0 -0 -0 -0 -0 -0 -0 -0 -0 -0 -0 -0 -0 -0 -0 -0 -0 -0 -0 -0 -0 -0 -0 -0 -0 -0 -0 -0 -0 -0 -0 -0 -0 -0 -0
Wind_Speed
22 20 17 13 10 9 6 5 3 6 8 10 12 14 16 18 19 21 22 24 25 26 27 28 28 29 31 32 32 32 33 32 33 31 30 32 34 35 35 34 34 35 36
21 19 17 14 12 9 6 5 4 7 9 11 12 14 16 18 20 21 23 23 24 25 27 27 28 29 32 32 32 32 31 30 29 33 33 33 33 35 35 37 37 35 36
21 20 17 13 11 9 5 4 4 8 10 11 13 15 17 19 21 22 22 23 24 26 26 27 28 31 33 33 32 32 31 31 30 29 32 32 33 34 38 36 37 36 35
22 21 18 14 10 6 5 3 7 9 11 12 14 16 18 20 21 21 22 23 25 26 26 27 29 32 33 32 31 33 32 32 31 31 33 33 36 36 35 39 40 38 37
21 21 17 13 11 9 4 6 9 11 12 14 15 17 19 20 20 20 21 23 24 26 27 26 31 32 33 32 32 35 35 34 33 34 33 33 36 39 39 37 38 38 40
22 10 20 15 8 7 8 10 11 12 14 15 17 18 20 21 21 20 20 22 23 25 26 28 29 31 33 34 35 35 35 34 33 33 32 34 34 36 36 37 37 41 40
7 12 9 10 9 8 12 12 11 13 14 16 18 20 22 23 23 22 20 21 22 23 27 28 29 30 32 35 36 34 34 34 33 32 33 33 33 35 34 34 36 36 34
10 10 9 11 16 14 11 11 12 13 15 17 19 21 22 23 24 24 23 21 20 24 26 28 29 30 33 35 36 36 34 34 33 34 32 32 31 30 28 30 30 29 28
12 11 14 20 17 13 12 12 13 15 16 18 20 22 23 24 25 24 22 20 22 25 26 29 28 29 32 35 37 38 37 35 34 35 33 31 30 27 29 30 32 35 29
11 16 16 13 13 13 14 14 14 15 16 18 20 22 24 24 25 23 22 22 24 25 27 27 27 29 32 37 38 38 40 38 37 36 35 32 31 29 29 28 26 26 24
11 9 11 11 13 14 13 14 15 15 16 17 20 22 23 23 24 24 23 25 26 27 28 28 27 29 33 36 38 37 38 36 37 36 35 33 32 32 30 26 24 21 20
12 13 13 12 12 13 14 14 15 15 16 18 21 21 22 22 23 24 25 27 27 28 29 30 29 29 33 34 38 38 38 37 37 36 35 36 35 36 32 28 22 20 13
15 12 11 12 12 12 13 14 14 15 15 18 21 21 21 21 23 25 27 27 28 28 30 31 32 33 35 36 38 39 39 39 37 37 37 36 35 35 31 31 25 21 16
12 10 9 10 11 12 13 13 13 13 15 17 19 19 20 22 24 26 27 27 28 29 31 32 32 34 35 36 38 39 39 39 38 37 35 35 35 38 37 37 32 27 24
9 8 9 10 12 12 12 13 14 14 16 17 17 19 20 22 24 25 26 27 28 29 30 32 34 35 37 37 38 40 39 39 39 38 36 37 37 38 38 37 36 28 27
9 9 10 11 12 12 14 15 16 16 17 18 19 20 21 22 24 26 27 27 29 30 31 33 35 36 37 38 39 40 40 41 40 39 37 36 36 35 35 33 33 27 11
7 7 8 10 11 12 13 14 15 17 17 18 19 22 23 24 25 26 26 28 30 31 32 33 35 36 37 38 39 39 40 40 39 39 38 36 34 32 32 28 24 14 10
6 7 7 10 11 13 14 16 16 16 16 17 19 21 23 24 24 25 26 27 29 31 32 34 35 36 37 38 38 38 38 39 40 40 37 34 31 28 27 26 21 17 13
9 9 8 12 12 15 16 17 17 16 17 17 18 20 22 23 24 26 27 27 28 30 32 34 35 36 37 37 36 36 38 39 40 38 36 31 28 25 19 21 20 16 13
12 14 14 13 15 14 14 14 14 15 16 17 17 18 19 22 24 25 26 27 28 30 32 34 35 35 36 36 36 36 38 39 39 38 34 31 25 22 18 14 17 16 14
15 15 12 10 11 11 11 12 13 15 16 16 17 18 19 21 22 23 25 26 28 29 32 33 34 34 35 35 35 37 38 38 37 38 35 30 25 21 20 12 9 13 9
11 10 10 11 11 11 12 13 13 14 15 16 17 18 20 21 21 22 24 25 27 29 31 32 33 34 35 35 36 37 37 37 37 35 31 29 24 21 22 19 10 13 12
4 8 10 11 10 12 13 14 15 14 15 16 17 18 19 20 21 21 23 24 27 29 30 32 33 34 34 35 35 36 36 36 37 30 24 27 24 24 22 23 17 14 16
9 11 10 10 11 12 13 12 12 14 15 16 17 18 19 21 21 21 22 23 26 27 30 31 32 33 34 35 35 36 36 35 35 34 24 26 25 23 24 25 22 17 16
8 9 9 10 11 12 12 12 13 13 14 15 16 17 18 20 21 21 21 22 24 27 29 31 32 32 33 35 36 36 35 33 32 31 29 25 26 25 24 24 25 23 22
7 9 10 10 10 11 12 12 12 13 14 15 16 17 18 19 20 20 21 22 23 26 28 30 32 32 33 34 35 35 34 33 31 31 31 27 26 26 25 23 26 28 25
Wind_Direction
214 215 212 214 203 189 183 204 119 58 33 27 17 5 1 2 3 6 7 6 5 6 4 4 4 4 1 358 357 353 350 350 345 350 352 351 350 349 349 351 350 349 350
207 206 205 202 196 192 189 113 83 53 33 29 15 8 3 3 5 6 5 8 9 9 6 6 4 4 1 359 358 358 358 359 355 351 352 353 353 353 352 348 349 351 351
197 197 198 198 193 179 152 102 58 52 36 21 14 9 6 6 6 9 14 15 16 13 10 8 7 4 0 359 0 1 0 358 357 355 354 356 354 354 351 352 351 351 353
196 191 186 179 172 155 122 90 52 39 34 24 16 13 9 8 11 15 17 16 13 10 13 13 9 4 1 1 4 1 360 359 359 359 356 355 355 355 355 352 352 354 355
197 195 184 174 163 123 121 65 58 45 32 25 19 15 16 18 21 22 19 13 14 15 18 20 10 8 8 7 4 360 359 0 359 357 358 358 357 355 355 356 354 355 353
233 195 170 169 139 122 92 78 64 43 32 26 19 23 24 24 21 22 21 17 20 21 17 13 13 10 7 6 3 3 4 3 4 2 3 1 1 359 359 357 358 355 355
208 194 132 123 117 103 90 80 53 46 38 29 27 26 24 23 22 26 31 25 25 23 16 14 14 13 11 8 6 8 8 9 8 5 4 5 4 3 2 4 3 1 2
177 176 131 120 102 95 82 70 59 47 39 35 29 26 26 22 21 24 23 28 35 23 20 18 15 14 12 10 8 9 10 11 11 8 9 6 7 8 12 9 8 9 11
140 127 106 103 99 87 74 71 62 60 47 34 31 28 25 21 20 23 24 36 29 20 19 16 19 18 17 13 8 6 10 11 11 9 10 11 12 16 13 12 13 11 20
120 103 98 87 85 84 79 77 61 54 48 39 29 26 25 23 21 22 26 29 23 19 21 21 23 23 17 10 7 8 5 7 7 8 11 13 15 17 16 19 21 23 28
110 98 86 81 82 81 75 65 63 55 50 38 30 26 28 26 25 20 23 21 23 21 19 19 22 22 15 10 9 9 7 8 6 9 13 16 17 15 18 23 26 29 33
98 91 87 82 77 78 74 69 63 57 50 41 34 34 30 29 23 21 21 25 27 22 18 19 21 20 13 11 9 8 7 9 8 8 14 15 14 10 16 22 28 29 37
94 90 85 80 71 65 66 64 58 58 48 40 37 38 39 32 26 23 25 27 26 24 21 20 17 15 12 11 7 7 8 8 8 7 9 12 13 8 13 14 26 30 35
93 85 75 68 61 52 43 46 48 64 55 46 42 48 42 33 26 24 26 27 26 23 20 17 16 13 10 10 9 8 9 8 5 6 7 10 9 358 3 3 15 25 28
89 79 69 63 59 48 36 34 56 58 66 57 65 52 41 34 29 29 31 29 27 24 22 18 14 13 12 12 11 9 8 7 4 4 2 359 356 350 352 347 1 24 29
91 81 72 70 66 63 60 55 38 50 63 69 57 42 37 37 33 31 32 31 27 25 21 17 15 14 12 9 8 7 7 6 4 2 357 351 343 337 335 334 338 31 43
80 73 67 64 69 71 65 67 70 60 58 53 44 37 36 36 36 32 33 33 27 23 22 20 18 14 11 10 9 8 7 7 5 2 358 344 337 330 329 326 322 317 321
73 72 68 75 75 77 76 76 77 75 71 54 42 37 30 32 35 33 31 32 27 24 25 21 17 14 13 12 11 13 12 6 2 359 347 337 331 325 326 324 317 315 319
86 79 75 82 81 81 80 79 74 67 61 54 44 32 31 39 38 34 32 32 30 27 24 20 18 17 16 16 18 18 11 4 1 354 345 335 328 324 317 319 318 316 321
100 100 95 89 90 87 79 71 63 59 49 42 45 45 44 40 34 32 32 33 33 28 23 21 20 20 20 21 20 17 11 3 357 353 341 335 328 321 319 319 317 318 321
112 110 102 86 87 81 68 67 69 61 51 49 47 44 42 39 37 37 34 34 32 27 23 22 22 22 22 22 21 15 8 0 352 354 341 333 328 324 322 318 321 320 328
101 93 86 89 84 79 78 75 72 63 58 52 44 39 38 37 40 39 35 34 31 29 27 26 25 24 23 21 18 14 6 2 352 344 336 334 329 325 328 325 328 325 327
94 88 88 87 81 76 71 71 67 60 60 53 46 39 35 36 36 36 34 34 30 28 27 25 24 22 21 20 18 14 6 358 357 30 328 333 331 332 332 334 327 327 330
94 91 88 89 89 83 80 69 55 61 58 51 45 40 36 33 31 34 33 34 31 29 26 23 22 20 18 16 14 8 3 357 355 350 330 334 335 333 336 341 338 332 333
93 90 87 85 85 84 79 70 62 56 49 46 43 40 36 31 27 32 34 33 30 26 23 21 19 17 15 12 7 359 352 348 349 344 340 336 339 338 336 341 345 342 342
93 93 91 87 84 79 73 65 59 53 49 48 44 39 33 30 27 31 33 31 28 23 20 18 16 14 11 8 3 357 353 350 347 345 350 342 341 343 340 339 348 353 350